Regional Weather Roundup
Issued by NWS

Home | Current Version | Previous Version | Graphics & Text | Print | Product List | Glossary On
Versions: 1 2 3 4 5 6 7 8 9 10 11 12 13 14 15 16 17 18 19 20 21 22 23 24 25 26 27 28 29 30 31 32 33 34 35 36 37 38 39 40 41 42 43 44 45 46 47 48 49 50
374
ASUS45 KCYS 270610
RWRWY

WYOMING REGIONAL WEATHER ROUNDUP
NATIONAL WEATHER SERVICE CHEYENNE WY
1200 AM MDT TUE SEP 27 2016

NOTE:  "FAIR" INDICATES FEW OR NO CLOUDS BELOW 12,000 FEET
WITH NO SIGNIFICANT WEATHER AND/OR OBSTRUCTIONS TO VISIBILITY.

WYZ001-270700-
YELLOWSTONE NATIONAL PARK

CITY           SKY/WX    TMP DP  RH WIND       PRES   REMARKS
LK YELLOWSTONE   N/A     34  34 100 CALM      30.47S
6HR MIN TEMP:  34; 6HR MAX TEMP:  58;

W YELLOWSTONE  NOT AVBL

$$
WYZ002>013-054>058-071-098>099-270700-
NORTHERN WYOMING

CITY           SKY/WX    TMP DP  RH WIND       PRES   REMARKS
JACKSON        FAIR      41  37  87 CALM      30.39R
CODY           FAIR      57  46  67 SW9       30.25F
GREYBULL       FAIR      52  47  83 SE5       30.22S
6HR MIN TEMP:  52; 6HR MAX TEMP:  69;

WORLAND        FAIR      51  47  86 SE9       30.23S
6HR MIN TEMP:  49; 6HR MAX TEMP:  70;

SHERIDAN       FAIR      47  41  80 NW3       30.17S
6HR MIN TEMP:  45; 6HR MAX TEMP:  69;

BUFFALO        FAIR      53  35  50 W8        30.23F
6HR MIN TEMP:  52; 6HR MAX TEMP:  65;

GILLETTE       FAIR      52  45  77 CALM      30.20F
6HR MIN TEMP:  47; 6HR MAX TEMP:  65;

HULETT         FAIR      50  43  76 SW7       30.21S
NEWCASTLE      FAIR      46  39  76 N9        30.23F

$$
WYZ014>020-022>026-101>103-270700-
CENTRAL WYOMING

CITY           SKY/WX    TMP DP  RH WIND       PRES   REMARKS
BIG PINEY      FAIR      41  36  82 NE3       30.41S
6HR MIN TEMP:  41; 6HR MAX TEMP:  71;

PINEDALE       FAIR      41  36  81 CALM      30.43S
DUBOIS         FAIR      45  37  76 NW9       30.41F
LANDER         FAIR      51  42  71 E5        30.31S
6HR MIN TEMP:  50; 6HR MAX TEMP:  67;

RIVERTON       FAIR      49  45  86 NW9       30.32S
6HR MIN TEMP:  49; 6HR MAX TEMP:  66; 6HR PCP: TRACE;

CASPER         FAIR      46  42  86 W7        30.29F
6HR MIN TEMP:  45; 6HR MAX TEMP:  69;

DOUGLAS        FAIR      45  40  82 CALM      30.28F
6HR MIN TEMP:  45; 6HR MAX TEMP:  70;


$$
WYZ021-027>030-104>119-270700-
SOUTHERN WYOMING

CITY           SKY/WX    TMP DP  RH WIND       PRES   REMARKS
EVANSTON       FAIR      55  35  47 CALM      30.40S
6HR MIN TEMP:  50; 6HR MAX TEMP:  68;

FORT BRIDGER   FAIR      57  36  45 W5        30.42S
ROCK SPRINGS   FAIR      51  40  65 S6        30.38F
6HR MIN TEMP:  51; 6HR MAX TEMP:  66;

DIXON          FAIR      47  37  67 E8        30.40F
RAWLINS        FAIR      40  34  79 CALM      30.38F
6HR MIN TEMP:  40; 6HR MAX TEMP:  67;

SARATOGA       FAIR      41  34  75 S9        30.41S
LARAMIE        FAIR      42  36  79 W6        30.40F
6HR MIN TEMP:  41; 6HR MAX TEMP:  65;

CHEYENNE       FAIR      47  37  68 W9        30.35F
6HR MIN TEMP:  47; 6HR MAX TEMP:  70;

TORRINGTON     FAIR      49  42  77 NW5       30.25F
6HR MIN TEMP:  49; 6HR MAX TEMP:  71;

PINE BLUFFS    FAIR      41  36  81 W7        30.31F

$$




USA.gov is the U.S. government's official web portal to all federal, state and local government web resources and services.